| time (UTC) | temp F | wind direction | speed knots | gust knots | rain 1hr in | rain 24hr in | rain mn in | humidity % | barometer mb |
| 20260508165609 | 43 | 270 | 6.1 | 20.9 | 0.04 | 0.58 | 0.58 | 97 | 981.6 |
| 20260508165059 | 43 | 270 | 8.7 | 17.4 | 0.02 | 0.57 | 0.57 | 97 | 981.4 |
| 20260508164549 | 43 | 293 | 4.3 | 13.9 | 0.04 | 0.57 | 0.57 | 98 | 981.4 |
| 20260508164040 | 43 | 270 | 5.2 | 13.9 | 0.02 | 0.56 | 0.56 | 96 | 981.3 |
| 20260508163529 | 43 | 270 | 3.5 | 15.6 | 0.02 | 0.56 | 0.56 | 96 | 981.3 |
| 20260508162508 | 43 | 248 | 6.1 | 13.0 | 0.02 | 0.54 | 0.54 | 95 | 981.6 |
| 20260508161959 | 43 | 293 | 2.6 | 15.6 | 0.02 | 0.54 | 0.54 | 95 | 981.5 |
| 20260508161448 | 42 | 270 | 2.6 | 15.6 | 0.02 | 0.54 | 0.54 | 95 | 981.5 |
| 20260508160938 | 43 | 270 | 4.3 | 14.8 | 0.02 | 0.54 | 0.54 | 96 | 981.5 |
| 20260508160429 | 43 | 248 | 4.3 | 14.8 | 0.02 | 0.54 | 0.54 | 96 | 981.4 |
| 20260508155917 | 43 | 293 | 4.3 | 19.1 | 0.02 | 0.54 | 0.54 | 97 | 981.3 |
| 20260508154857 | 43 | 270 | 3.5 | 13.9 | 0.02 | 0.54 | 0.54 | 96 | 981.1 |
| 20260508154347 | 43 | 180 | 5.2 | 17.4 | 0.01 | 0.53 | 0.53 | 96 | 981.4 |
| 20260508153838 | 43 | 225 | 6.1 | 17.4 | 0.01 | 0.53 | 0.53 | 97 | 981.5 |
| 20260508153327 | 43 | 248 | 8.7 | 17.4 | 0.00 | 0.52 | 0.52 | 95 | 981.3 |
| 20260508152818 | 43 | 225 | 4.3 | 13.9 | 0.00 | 0.52 | 0.52 | 97 | 981.2 |
| 20260508151757 | 44 | 270 | 7.0 | 15.6 | 0.00 | 0.52 | 0.52 | 96 | 981.3 |
| 20260508151247 | 44 | 180 | 6.1 | 18.2 | 0.00 | 0.52 | 0.52 | 96 | 981.2 |
| 20260508150737 | 44 | 248 | 5.2 | 18.2 | 0.00 | 0.52 | 0.52 | 94 | 981.1 |
| 20260508150227 | 44 | 180 | 6.1 | 19.1 | 0.00 | 0.52 | 0.52 | 95 | 981.0 |
| 20260508145716 | 44 | 270 | 5.2 | 19.1 | 0.00 | 0.52 | 0.52 | 95 | 981.2 |
| 20260508145207 | 44 | 270 | 7.0 | 14.8 | 0.00 | 0.52 | 0.52 | 94 | 981.0 |
| 20260508144147 | 44 | 248 | 7.0 | 18.2 | 0.00 | 0.52 | 0.52 | 94 | 980.9 |
| 20260508143636 | 44 | 270 | 6.1 | 20.0 | 0.00 | 0.52 | 0.52 | 94 | 980.7 |
| 20260508143127 | 44 | 248 | 7.0 | 20.9 | 0.01 | 0.52 | 0.52 | 94 | 980.8 |
| 20260508142616 | 44 | 225 | 7.0 | 20.9 | 0.01 | 0.52 | 0.52 | 96 | 980.6 |
| 20260508142108 | 44 | 248 | 4.3 | 15.6 | 0.02 | 0.52 | 0.52 | 96 | 980.5 |
| 20260508141556 | 44 | 225 | 7.8 | 18.2 | 0.02 | 0.52 | 0.52 | 97 | 980.5 |
| 20260508141046 | 44 | 248 | 1.7 | 20.0 | 0.04 | 0.52 | 0.52 | 97 | 980.5 |
| 20260508140540 | 44 | 203 | 7.0 | 20.0 | 0.05 | 0.52 | 0.52 | 96 | 980.6 |
| 20260508140025 | 44 | 158 | 7.0 | 14.8 | 0.06 | 0.52 | 0.52 | 96 | 980.6 |
| 20260508135515 | 43 | 248 | 6.1 | 14.8 | 0.08 | 0.52 | 0.52 | 97 | 980.4 |
| 20260508135005 | 43 | 248 | 3.5 | 19.1 | 0.09 | 0.52 | 0.52 | 98 | 980.6 |
| 20260508133945 | 43 | 203 | 6.1 | 18.2 | 0.11 | 0.52 | 0.52 | 98 | 980.7 |
| 20260508133434 | 43 | 270 | 6.1 | 15.6 | 0.11 | 0.51 | 0.52 | 98 | 980.7 |
| 20260508132924 | 43 | 293 | 7.0 | 15.6 | 0.11 | 0.51 | 0.51 | 98 | 980.7 |
| 20260508132415 | 43 | 270 | 7.8 | 13.9 | 0.12 | 0.51 | 0.51 | 98 | 980.6 |
| 20260508131904 | 43 | 248 | 8.7 | 13.9 | 0.11 | 0.50 | 0.50 | 98 | 980.6 |
| 20260508131355 | 43 | 270 | 6.1 | 17.4 | 0.12 | 0.50 | 0.50 | 98 | 980.5 |
| 20260508130844 | 43 | 270 | 8.7 | 17.4 | 0.11 | 0.48 | 0.48 | 98 | 980.6 |
| 20260508125823 | 43 | 293 | 6.1 | 14.8 | 0.08 | 0.45 | 0.45 | 98 | 980.4 |
| 20260508125315 | 43 | 248 | 7.0 | 14.8 | 0.07 | 0.44 | 0.44 | 98 | 980.5 |
| 20260508124804 | 43 | 225 | 3.5 | 15.6 | 0.07 | 0.43 | 0.43 | 98 | 980.2 |
| 20260508124255 | 43 | 270 | 7.0 | 17.4 | 0.08 | 0.43 | 0.43 | 98 | 980.3 |
| 20260508123233 | 43 | 180 | 7.0 | 19.1 | 0.08 | 0.40 | 0.40 | 99 | 980.1 |
| 20260508122723 | 43 | 203 | 7.0 | 19.1 | 0.09 | 0.40 | 0.40 | 98 | 980.0 |
| 20260508122214 | 43 | 293 | 6.1 | 15.6 | 0.09 | 0.39 | 0.39 | 99 | 980.1 |
| 20260508121702 | 43 | 270 | 3.5 | 15.6 | 0.09 | 0.39 | 0.39 | 99 | 980.1 |
| 20260508121153 | 43 | 203 | 4.3 | 14.8 | 0.11 | 0.38 | 0.38 | 99 | 979.8 |
| 20260508120643 | 43 | 225 | 7.0 | 17.4 | 0.12 | 0.38 | 0.38 | 99 | 979.8 |
| 20260508120133 | 43 | 248 | 3.5 | 17.4 | 0.12 | 0.37 | 0.37 | 99 | 979.8 |
| 20260508115113 | 43 | 203 | 7.8 | 15.6 | 0.12 | 0.35 | 0.35 | 99 | 979.7 |
| 20260508114603 | 43 | 270 | 5.2 | 14.8 | 0.11 | 0.34 | 0.34 | 99 | 979.7 |
| 20260508114052 | 43 | 293 | 7.0 | 15.6 | 0.11 | 0.34 | 0.34 | 99 | 979.8 |
| 20260508113541 | 43 | 338 | 6.1 | 15.6 | 0.11 | 0.33 | 0.33 | 99 | 979.6 |
| 20260508113033 | 43 | 293 | 5.2 | 13.0 | 0.11 | 0.32 | 0.32 | 99 | 979.6 |
| 20260508112522 | 43 | 225 | 4.3 | 13.0 | 0.09 | 0.31 | 0.31 | 99 | 979.5 |
| 20260508112013 | 43 | 203 | 3.5 | 15.6 | 0.09 | 0.30 | 0.30 | 99 | 979.6 |
| 20260508111502 | 43 | 225 | 7.0 | 15.6 | 0.11 | 0.28 | 0.28 | 99 | 979.6 |
| 20260508110952 | 43 | 270 | 5.2 | 15.6 | 0.11 | 0.27 | 0.27 | 99 | 979.3 |
| 20260508110442 | 43 | 270 | 4.3 | 14.8 | 0.09 | 0.26 | 0.26 | 99 | 979.4 |
| 20260508105932 | 43 | 225 | 5.2 | 15.6 | 0.11 | 0.25 | 0.25 | 99 | 979.3 |
| 20260508105420 | 43 | 225 | 8.7 | 15.6 | 0.12 | 0.24 | 0.24 | 99 | 979.2 |
| 20260508104911 | 43 | 248 | 6.1 | 13.9 | 0.13 | 0.24 | 0.24 | 99 | 979.4 |
| 20260508104401 | 43 | 293 | 6.1 | 17.4 | 0.15 | 0.24 | 0.24 | 99 | 979.1 |
| 20260508103851 | 43 | 225 | 7.0 | 18.2 | 0.20 | 0.24 | 0.24 | 98 | 979.2 |
| 20260508103341 | 43 | 225 | 7.0 | 20.0 | 0.20 | 0.22 | 0.22 | 99 | 979.3 |
| 20260508102830 | 43 | 248 | 7.0 | 20.0 | 0.20 | 0.21 | 0.21 | 99 | 979.2 |
| 20260508102321 | 43 | 270 | 7.0 | 17.4 | 0.20 | 0.20 | 0.20 | 99 | 979.1 |
| 20260508101810 | 43 | 293 | 3.5 | 23.5 | 0.19 | 0.19 | 0.19 | 99 | 979.3 |
| 20260508101300 | 43 | 270 | 6.1 | 23.5 | 0.18 | 0.18 | 0.18 | 98 | 979.3 |
| 20260508100749 | 43 | 270 | 8.7 | 26.1 | 0.17 | 0.17 | 0.17 | 98 | 979.1 |
| 20260508100240 | 43 | 248 | 9.6 | 26.1 | 0.15 | 0.15 | 0.17 | 99 | 979.1 |
| 20260508095729 | 43 | 248 | 3.5 | 17.4 | 0.13 | 0.13 | 0.13 | 99 | 978.9 |
| 20260508095219 | 44 | 338 | 5.2 | 17.4 | 0.12 | 0.12 | 0.12 | 99 | 978.9 |
| 20260508094710 | 44 | 270 | 4.3 | 17.4 | 0.09 | 0.09 | 0.09 | 99 | 978.7 |
| 20260508094159 | 44 | 248 | 4.3 | 13.9 | 0.06 | 0.06 | 0.06 | 98 | 978.8 |
| 20260508093650 | 44 | 248 | 6.1 | 23.5 | 0.02 | 0.02 | 0.04 | 98 | 978.7 |
| 20260508093140 | 44 | 270 | 8.7 | 23.5 | 0.02 | 0.02 | 0.02 | 98 | 978.6 |
| 20260508092630 | 44 | 203 | 7.0 | 18.2 | 0.01 | 0.01 | 0.01 | 98 | 978.6 |
| 20260508091609 | 44 | 203 | 7.8 | 18.2 | 0.00 | 0.00 | 0.00 | 97 | 978.7 |
| 20260508091059 | 44 | 248 | 6.1 | 18.2 | 0.00 | 0.00 | 0.00 | 97 | 978.6 |
| 20260508090550 | 45 | 248 | 7.0 | 17.4 | 0.00 | 0.00 | 0.00 | 97 | 978.8 |
| 20260508090040 | 45 | 225 | 7.0 | 17.4 | 0.00 | 0.00 | 0.00 | 97 | 978.8 |
| 20260508085528 | 45 | 203 | 2.6 | 15.6 | 0.00 | 0.00 | 0.00 | 97 | 978.7 |
| 20260508085018 | 45 | 248 | 6.1 | 15.6 | 0.00 | 0.00 | 0.00 | 97 | 978.5 |
| 20260508084515 | 45 | 248 | 7.0 | 15.6 | 0.00 | 0.00 | 0.00 | 96 | 978.7 |
| 20260508083959 | 45 | 293 | 4.3 | 17.4 | 0.00 | 0.00 | 0.00 | 96 | 978.9 |
| 20260508082428 | 45 | 225 | 3.5 | 19.1 | 0.00 | 0.00 | 0.00 | 96 | 978.8 |
| 20260508080858 | 45 | 225 | 11.3 | 17.4 | 0.00 | 0.00 | 0.00 | 96 | 978.8 |
| 20260508080346 | 45 | 270 | 3.5 | 0.0 | 0.00 | 0.00 | 0.00 | 96 | 978.7 |
| 20260508080150 | 45 | 270 | 3.5 | 0.0 | 0.00 | 0.00 | 0.00 | 97 | 978.8 |
| 20260508075805 | 45 | 248 | 4.3 | 19.1 | 0.00 | 0.27 | 0.00 | 97 | 978.8 |
| 20260508075255 | 45 | 225 | 7.0 | 19.1 | 0.00 | 0.27 | 0.00 | 97 | 978.8 |
| 20260508074745 | 45 | 180 | 6.1 | 20.0 | 0.00 | 0.27 | 0.00 | 97 | 978.7 |
| 20260508074235 | 45 | 203 | 4.3 | 20.0 | 0.00 | 0.27 | 0.00 | 97 | 978.8 |
| 20260508073725 | 45 | 203 | 7.0 | 20.0 | 0.00 | 0.27 | 0.00 | 97 | 979.0 |
| 20260508072705 | 46 | 270 | 7.0 | 13.0 | 0.00 | 0.27 | 0.00 | 95 | 979.0 |
| 20260508072154 | 46 | 203 | 7.0 | 13.9 | 0.00 | 0.27 | 0.00 | 95 | 979.0 |
| 20260508071135 | 46 | 270 | 5.2 | 21.7 | 0.00 | 0.27 | 0.00 | 96 | 979.1 |
| 20260508070624 | 46 | 225 | 8.7 | 20.9 | 0.00 | 0.27 | 0.00 | 95 | 979.1 |
| 20260508070115 | 46 | 248 | 5.2 | 17.4 | 0.00 | 0.27 | 0.00 | 95 | 979.3 |
| 20260508065608 | 46 | 248 | 4.3 | 18.2 | 0.00 | 0.27 | 0.00 | 95 | 979.4 |
| 20260508065054 | 46 | 180 | 4.3 | 18.2 | 0.00 | 0.27 | 0.00 | 95 | 979.4 |
| 20260508064034 | 46 | 270 | 7.0 | 15.6 | 0.00 | 0.27 | 0.00 | 95 | 979.4 |
| 20260508063524 | 46 | 225 | 6.1 | 17.4 | 0.00 | 0.27 | 0.00 | 95 | 979.3 |
| 20260508063013 | 46 | 248 | 3.5 | 23.5 | 0.00 | 0.27 | 0.00 | 95 | 979.4 |
| 20260508062503 | 46 | 248 | 4.3 | 23.5 | 0.00 | 0.27 | 0.00 | 95 | 979.4 |
| 20260508061955 | 46 | 293 | 3.5 | 18.2 | 0.00 | 0.27 | 0.00 | 96 | 979.5 |
| 20260508061444 | 46 | 158 | 3.5 | 12.2 | 0.00 | 0.27 | 0.00 | 96 | 979.4 |
| 20260508060933 | 46 | 248 | 5.2 | 14.8 | 0.00 | 0.27 | 0.00 | 96 | 979.5 |
| 20260508060423 | 46 | 293 | 5.2 | 14.8 | 0.00 | 0.27 | 0.00 | 97 | 979.5 |
| 20260508055913 | 46 | 338 | 7.0 | 14.8 | 0.00 | 0.27 | 0.00 | 97 | 979.4 |
| 20260508055403 | 46 | 248 | 3.5 | 14.8 | 0.00 | 0.27 | 0.00 | 97 | 979.7 |
| 20260508054852 | 46 | 293 | 3.5 | 18.2 | 0.00 | 0.27 | 0.00 | 97 | 979.6 |
| 20260508054343 | 46 | 270 | 6.1 | 18.2 | 0.00 | 0.27 | 0.00 | 97 | 979.6 |
| 20260508053832 | 46 | 293 | 3.5 | 13.0 | 0.00 | 0.27 | 0.00 | 97 | 979.9 |
| 20260508053322 | 46 | 248 | 4.3 | 14.8 | 0.00 | 0.27 | 0.00 | 97 | 979.7 |
| 20260508052809 | 46 | 293 | 3.5 | 14.8 | 0.00 | 0.27 | 0.00 | 97 | 979.7 |
| 20260508052259 | 46 | 270 | 4.3 | 13.0 | 0.00 | 0.27 | 0.00 | 97 | 979.9 |
| 20260508051752 | 46 | 180 | 4.3 | 17.4 | 0.00 | 0.27 | 0.00 | 97 | 979.8 |
| 20260508051243 | 47 | 270 | 7.0 | 17.4 | 0.00 | 0.27 | 0.00 | 97 | 980.1 |
| 20260508050731 | 47 | 248 | 4.3 | 14.8 | 0.00 | 0.27 | 0.00 | 97 | 979.9 |
| 20260508050222 | 47 | 270 | 5.2 | 14.8 | 0.00 | 0.27 | 0.00 | 97 | 979.8 |
| 20260508045711 | 47 | 225 | 5.2 | 13.0 | 0.00 | 0.27 | 0.00 | 97 | 979.8 |
| 20260508045201 | 47 | 293 | 3.5 | 13.0 | 0.00 | 0.27 | 0.00 | 97 | 979.9 |
| 20260508044651 | 47 | 225 | 4.3 | 17.4 | 0.00 | 0.27 | 0.00 | 97 | 979.7 |
| 20260508044141 | 47 | 158 | 1.7 | 17.4 | 0.00 | 0.27 | 0.00 | 97 | 980.0 |
| 20260508043631 | 47 | 158 | 7.0 | 17.4 | 0.00 | 0.27 | 0.00 | 97 | 979.8 |
| 20260508043120 | 47 | 225 | 5.2 | 14.8 | 0.00 | 0.27 | 0.00 | 97 | 979.9 |
| 20260508042611 | 47 | 225 | 4.3 | 14.8 | 0.00 | 0.27 | 0.00 | 97 | 980.0 |
| 20260508041551 | 47 | 270 | 5.2 | 15.6 | 0.00 | 0.27 | 0.00 | 97 | 979.8 |
| 20260508041041 | 47 | 293 | 3.5 | 15.6 | 0.00 | 0.27 | 0.00 | 97 | 979.8 |
| 20260508040537 | 47 | 248 | 5.2 | 14.8 | 0.00 | 0.27 | 0.00 | 97 | 980.1 |
| 20260508040021 | 47 | 203 | 4.3 | 14.8 | 0.00 | 0.27 | 0.00 | 97 | 980.2 |
| 20260508035510 | 47 | 293 | 5.2 | 14.8 | 0.00 | 0.27 | 0.00 | 97 | 980.1 |
| 20260508035000 | 46 | 293 | 6.1 | 13.9 | 0.00 | 0.27 | 0.00 | 97 | 980.0 |
| 20260508034450 | 46 | 338 | 5.2 | 13.0 | 0.00 | 0.27 | 0.00 | 97 | 980.1 |
| 20260508033940 | 46 | 293 | 2.6 | 13.0 | 0.00 | 0.27 | 0.00 | 97 | 980.4 |
| 20260508033430 | 46 | 203 | 4.3 | 12.2 | 0.00 | 0.27 | 0.00 | 98 | 980.2 |
| 20260508032409 | 46 | 248 | 4.3 | 13.0 | 0.00 | 0.27 | 0.00 | 98 | 980.5 |
| 20260508031859 | 46 | 248 | 3.5 | 11.3 | 0.00 | 0.27 | 0.00 | 97 | 980.8 |
| 20260508031350 | 46 | 293 | 4.3 | 13.0 | 0.00 | 0.27 | 0.00 | 98 | 980.8 |
| 20260508030838 | 46 | 293 | 6.1 | 15.6 | 0.00 | 0.27 | 0.00 | 98 | 980.9 |
| 20260508030329 | 46 | 203 | 7.0 | 15.6 | 0.00 | 0.27 | 0.00 | 98 | 980.6 |
| 20260508025819 | 46 | 293 | 4.3 | 13.0 | 0.00 | 0.27 | 0.27 | 98 | 980.8 |
| 20260508025306 | 46 | 270 | 2.6 | 12.2 | 0.00 | 0.27 | 0.27 | 99 | 980.9 |
| 20260508024759 | 46 | 270 | 6.1 | 18.2 | 0.00 | 0.27 | 0.27 | 99 | 981.0 |
| 20260508024248 | 46 | 293 | 3.5 | 18.2 | 0.01 | 0.27 | 0.27 | 99 | 981.0 |
| 20260508023740 | 46 | 293 | 4.3 | 13.0 | 0.01 | 0.27 | 0.27 | 99 | 981.2 |
| 20260508023228 | 46 | 225 | 0.9 | 13.0 | 0.01 | 0.27 | 0.27 | 99 | 981.3 |
| 20260508022718 | 46 | 270 | 3.5 | 13.0 | 0.01 | 0.27 | 0.27 | 99 | 981.4 |
| 20260508015617 | 46 | 203 | 4.3 | 13.0 | 0.02 | 0.27 | 0.27 | 99 | 981.2 |
| 20260508015107 | 46 | 203 | 3.5 | 18.2 | 0.02 | 0.27 | 0.27 | 99 | 981.4 |
| 20260508014557 | 46 | 225 | 3.5 | 18.2 | 0.02 | 0.27 | 0.27 | 99 | 981.4 |
| 20260508014047 | 47 | 293 | 1.7 | 13.0 | 0.01 | 0.26 | 0.26 | 99 | 981.7 |
| 20260508013536 | 47 | 270 | 3.5 | 13.0 | 0.01 | 0.26 | 0.26 | 99 | 981.5 |
| 20260508012007 | 47 | 248 | 3.5 | 13.0 | 0.04 | 0.26 | 0.26 | 99 | 981.9 |
| 20260508011456 | 47 | 248 | 3.5 | 11.3 | 0.04 | 0.26 | 0.26 | 99 | 981.6 |
| 20260508010947 | 47 | 225 | 4.3 | 12.2 | 0.02 | 0.25 | 0.25 | 99 | 982.0 |
| 20260508010436 | 47 | 45 | 3.5 | 17.4 | 0.02 | 0.25 | 0.25 | 99 | 982.0 |
| 20260508005926 | 48 | 248 | 5.2 | 17.4 | 0.04 | 0.25 | 0.25 | 99 | 982.2 |
| 20260508005417 | 48 | 248 | 3.5 | 13.9 | 0.04 | 0.25 | 0.25 | 99 | 982.0 |
| 20260508003846 | 49 | 225 | 4.3 | 12.2 | 0.05 | 0.25 | 0.25 | 99 | 982.1 |
| 20260508003336 | 49 | 338 | 2.6 | 9.6 | 0.05 | 0.25 | 0.25 | 99 | 982.1 |
| 20260508002317 | 50 | 293 | 1.7 | 11.3 | 0.05 | 0.24 | 0.24 | 99 | 982.4 |
| 20260508001806 | 50 | 203 | 1.7 | 11.3 | 0.04 | 0.22 | 0.22 | 99 | 982.2 |
| 20260508001255 | 50 | 225 | 3.5 | 11.3 | 0.05 | 0.22 | 0.22 | 99 | 982.3 |
| 20260508000235 | 50 | 225 | 4.3 | 9.6 | 0.04 | 0.21 | 0.21 | 99 | 982.4 |
| 20260507235725 | 50 | 270 | 1.7 | 7.8 | 0.04 | 0.21 | 0.21 | 99 | 982.3 |
| 20260507235215 | 50 | 248 | 1.7 | 12.2 | 0.05 | 0.21 | 0.21 | 99 | 982.1 |
| 20260507234705 | 50 | 293 | 6.1 | 12.2 | 0.05 | 0.21 | 0.21 | 99 | 982.2 |
| 20260507233646 | 50 | 338 | 2.6 | 13.0 | 0.05 | 0.20 | 0.20 | 99 | 982.0 |
| 20260507233134 | 50 | 315 | 2.6 | 9.6 | 0.05 | 0.20 | 0.20 | 99 | 981.8 |
| 20260507232116 | 51 | 180 | 3.5 | 14.8 | 0.05 | 0.19 | 0.19 | 99 | 981.9 |
| 20260507231604 | 51 | 225 | 4.3 | 13.9 | 0.06 | 0.19 | 0.19 | 99 | 981.6 |
| 20260507230543 | 51 | 225 | 3.5 | 9.6 | 0.06 | 0.18 | 0.18 | 99 | 981.8 |
| 20260507230034 | 51 | 270 | 1.7 | 7.8 | 0.06 | 0.18 | 0.18 | 99 | 981.7 |
| 20260507225525 | 51 | 203 | 1.7 | 7.8 | 0.06 | 0.17 | 0.17 | 99 | 981.7 |
| 20260507225014 | 51 | 293 | 0.9 | 7.8 | 0.06 | 0.17 | 0.17 | 99 | 981.7 |
| 20260507224504 | 51 | 270 | 2.6 | 9.6 | 0.07 | 0.17 | 0.17 | 99 | 981.5 |
| 20260507223953 | 51 | 248 | 2.6 | 9.6 | 0.07 | 0.17 | 0.17 | 99 | 981.5 |
| 20260507223443 | 51 | 248 | 1.7 | 9.6 | 0.07 | 0.15 | 0.15 | 99 | 981.8 |
| 20260507222933 | 51 | 270 | 1.7 | 9.6 | 0.07 | 0.15 | 0.15 | 99 | 981.7 |
| 20260507222422 | 52 | 248 | 5.2 | 9.6 | 0.06 | 0.14 | 0.14 | 99 | 981.7 |
| 20260507221913 | 52 | 203 | 3.5 | 7.8 | 0.07 | 0.14 | 0.14 | 99 | 981.6 |
| 20260507221404 | 52 | 203 | 1.7 | 11.3 | 0.06 | 0.13 | 0.13 | 99 | 981.6 |
| 20260507220852 | 52 | 270 | 1.7 | 11.3 | 0.05 | 0.12 | 0.12 | 99 | 981.4 |
| 20260507220343 | 52 | 203 | 1.7 | 7.8 | 0.05 | 0.12 | 0.12 | 99 | 981.3 |
| 20260507215832 | 52 | 225 | 1.7 | 12.2 | 0.05 | 0.12 | 0.12 | 99 | 981.4 |
| 20260507215322 | 52 | 248 | 1.7 | 12.2 | 0.04 | 0.11 | 0.11 | 99 | 981.4 |
| 20260507214302 | 52 | 293 | 3.5 | 13.0 | 0.05 | 0.09 | 0.09 | 99 | 981.8 |
| 20260507213752 | 52 | 293 | 1.7 | 7.0 | 0.05 | 0.09 | 0.09 | 99 | 981.4 |
| 20260507213241 | 52 | 158 | 1.7 | 7.8 | 0.07 | 0.08 | 0.08 | 99 | 981.2 |
| 20260507212732 | 52 | 248 | 0.9 | 7.8 | 0.07 | 0.08 | 0.08 | 99 | 981.3 |
| 20260507212222 | 52 | 248 | 2.6 | 9.6 | 0.06 | 0.07 | 0.07 | 99 | 981.0 |
| 20260507211711 | 52 | 203 | 1.7 | 9.6 | 0.06 | 0.07 | 0.07 | 99 | 980.7 |
| 20260507211201 | 52 | 293 | 0.9 | 9.6 | 0.06 | 0.07 | 0.07 | 99 | 980.4 |
| 20260507210651 | 52 | 180 | 1.7 | 9.6 | 0.06 | 0.07 | 0.07 | 99 | 980.5 |
| 20260507210141 | 52 | 293 | 1.7 | 13.0 | 0.06 | 0.07 | 0.07 | 99 | 980.4 |
| 20260507205631 | 52 | 158 | 3.5 | 14.8 | 0.06 | 0.07 | 0.07 | 98 | 980.4 |
| 20260507205121 | 52 | 248 | 4.3 | 14.8 | 0.05 | 0.06 | 0.06 | 98 | 980.4 |
| 20260507204611 | 53 | 270 | 4.3 | 7.8 | 0.05 | 0.06 | 0.06 | 98 | 980.5 |
| 20260507204101 | 54 | 203 | 1.7 | 7.0 | 0.04 | 0.05 | 0.05 | 99 | 980.6 |
| 20260507203551 | 55 | 248 | 1.7 | 1.7 | 0.01 | 0.02 | 0.02 | 98 | 980.9 |
| 20260507203040 | 55 | 203 | 0.0 | 1.7 | 0.00 | 0.01 | 0.01 | 98 | 980.7 |
| 20260507202530 | 56 | 180 | 0.0 | 1.7 | 0.00 | 0.01 | 0.01 | 99 | 980.9 |
| 20260507201517 | 56 | 135 | 1.7 | 3.5 | 0.00 | 0.01 | 0.01 | 99 | 981.5 |
| 20260507201000 | 56 | 135 | 1.7 | 3.5 | 0.00 | 0.01 | 0.01 | 99 | 981.4 |
| 20260507195940 | 56 | 158 | 1.7 | 3.5 | 0.00 | 0.01 | 0.01 | 99 | 981.8 |
| 20260507195431 | 56 | 135 | 1.7 | 3.5 | 0.00 | 0.01 | 0.01 | 99 | 982.0 |
| 20260507194919 | 56 | 158 | 0.9 | 5.2 | 0.00 | 0.01 | 0.01 | 99 | 982.0 |
| 20260507194412 | 56 | 180 | 3.5 | 5.2 | 0.00 | 0.01 | 0.01 | 98 | 981.9 |
| 20260507193900 | 56 | 158 | 1.7 | 5.2 | 0.00 | 0.01 | 0.01 | 99 | 981.8 |
| 20260507193349 | 56 | 180 | 3.5 | 7.0 | 0.00 | 0.01 | 0.01 | 98 | 981.7 |
| 20260507192838 | 56 | 158 | 5.2 | 7.0 | 0.00 | 0.01 | 0.01 | 97 | 981.7 |
| 20260507192329 | 57 | 158 | 3.5 | 7.0 | 0.00 | 0.01 | 0.01 | 96 | 981.8 |
| 20260507191309 | 58 | 158 | 6.1 | 9.6 | 0.00 | 0.01 | 0.01 | 95 | 981.7 |
| 20260507190248 | 58 | 135 | 4.3 | 7.8 | 0.00 | 0.01 | 0.01 | 94 | 981.7 |
| 20260507185739 | 59 | 135 | 5.2 | 7.8 | 0.00 | 0.01 | 0.01 | 94 | 981.5 |
| 20260507185228 | 60 | 180 | 3.5 | 7.0 | 0.00 | 0.01 | 0.01 | 89 | 981.8 |
| 20260507184718 | 61 | 225 | 0.9 | 3.5 | 0.00 | 0.01 | 0.01 | 86 | 981.7 |
| 20260507184208 | 61 | 225 | 0.0 | 1.7 | 0.00 | 0.01 | 0.01 | 85 | 981.8 |
| 20260507183149 | 61 | 180 | 0.0 | 5.2 | 0.00 | 0.01 | 0.01 | 85 | 981.6 |
| 20260507182638 | 61 | 270 | 1.7 | 5.2 | 0.00 | 0.01 | 0.01 | 84 | 981.6 |
| 20260507182125 | 62 | 158 | 0.0 | 3.5 | 0.00 | 0.01 | 0.01 | 83 | 981.8 |
| 20260507181614 | 61 | 158 | 1.7 | 6.1 | 0.00 | 0.01 | 0.01 | 84 | 981.5 |
| 20260507181105 | 61 | 225 | 3.5 | 6.1 | 0.00 | 0.01 | 0.01 | 84 | 981.3 |
| 20260507180559 | 61 | 293 | 1.7 | 6.1 | 0.00 | 0.01 | 0.01 | 83 | 981.3 |
| 20260507180048 | 61 | 248 | 1.7 | 6.1 | 0.00 | 0.01 | 0.01 | 86 | 981.3 |
| 20260507175538 | 61 | 158 | 1.7 | 6.1 | 0.00 | 0.01 | 0.01 | 84 | 981.5 |
| 20260507175026 | 63 | 180 | 1.7 | 3.5 | 0.00 | 0.01 | 0.01 | 85 | 981.7 |
| 20260507174517 | 61 | 270 | 1.7 | 3.5 | 0.00 | 0.01 | 0.01 | 86 | 981.5 |
| 20260507174007 | 61 | 203 | 1.7 | 3.5 | 0.00 | 0.01 | 0.01 | 86 | 981.4 |
| 20260507173456 | 61 | 180 | 1.7 | 3.5 | 0.00 | 0.01 | 0.01 | 88 | 981.6 |
| 20260507172946 | 61 | 225 | 1.7 | 3.5 | 0.00 | 0.01 | 0.01 | 89 | 981.7 |
| 20260507172437 | 58 | 203 | 0.9 | 3.5 | 0.00 | 0.01 | 0.01 | 91 | 981.6 |
| 20260507171926 | 58 | 225 | 0.9 | 3.5 | 0.00 | 0.01 | 0.01 | 95 | 981.6 |
| 20260507171416 | 58 | 270 | 0.9 | 3.5 | 0.00 | 0.01 | 0.01 | 94 | 982.0 |
| 20260507170906 | 58 | 158 | 1.7 | 3.5 | 0.00 | 0.01 | 0.01 | 91 | 981.7 |
| 20260507170356 | 58 | 180 | 0.9 | 5.2 | 0.00 | 0.01 | 0.01 | 93 | 982.0 |